LHA2598 EDDP-LKPR

Flight info

Callsign LHA2598
Flight time 0h 36m
Altitude 21000
Route DRN2Q DRN T620 LALUK DCT GOLOP
Aircraft DH8D/M-SDE1E2FGIJ1RWYZ/S

Departure

Time 2026-05-07 06:39
Airport Leipzig/Halle Airport (EDDP)

Arrival

Time 2026-05-07 07:15
Airport Václav Havel Airport Prague (LKPR)
Time Latitude Longitude Altitude Speed Heading
2026-05-07 06:14 51.41940 12.21772 482 ft 0 kts 14°
2026-05-07 06:29 51.41928 12.21766 482 ft 2 kts 15°
2026-05-07 06:29 51.41914 12.21760 482 ft 2 kts 14°
2026-05-07 06:30 51.41900 12.21754 482 ft 2 kts 14°
2026-05-07 06:30 51.41885 12.21748 482 ft 2 kts 14°
2026-05-07 06:30 51.41870 12.21742 482 ft 2 kts 14°
2026-05-07 06:30 51.41862 12.21738 482 ft 1 kts
2026-05-07 06:31 51.41856 12.21742 482 ft 1 kts 308°
2026-05-07 06:31 51.41853 12.21752 482 ft 1 kts 284°
2026-05-07 06:31 51.41853 12.21753 482 ft 0 kts 285°
2026-05-07 06:34 51.41858 12.21725 482 ft 5 kts 285°
2026-05-07 06:34 51.41874 12.21631 482 ft 11 kts 284°
2026-05-07 06:34 51.41899 12.21480 482 ft 16 kts 285°
2026-05-07 06:34 51.41930 12.21295 482 ft 17 kts 285°
2026-05-07 06:35 51.41964 12.21103 482 ft 18 kts 285°
2026-05-07 06:35 51.42020 12.20934 482 ft 17 kts 341°
2026-05-07 06:35 51.42125 12.20952 482 ft 13 kts 15°
2026-05-07 06:35 51.42209 12.20990 482 ft 13 kts 15°
2026-05-07 06:36 51.42302 12.21029 494 ft 15 kts 14°
2026-05-07 06:36 51.42424 12.21083 504 ft 19 kts 15°
2026-05-07 06:36 51.42543 12.21134 505 ft 16 kts 15°
2026-05-07 06:36 51.42651 12.21181 501 ft 17 kts 15°
2026-05-07 06:37 51.42791 12.21242 482 ft 22 kts 13°
2026-05-07 06:37 51.42917 12.21301 482 ft 14 kts 28°
2026-05-07 06:37 51.42963 12.21404 482 ft 9 kts 50°
2026-05-07 06:37 51.43006 12.21481 482 ft 9 kts 45°
2026-05-07 06:38 51.43067 12.21575 482 ft 14 kts 44°
2026-05-07 06:38 51.43129 12.21703 482 ft 12 kts 77°
2026-05-07 06:38 51.43131 12.21722 482 ft 0 kts 83°
2026-05-07 06:38 51.43136 12.21820 482 ft 42 kts 85°
2026-05-07 06:39 51.43182 12.22771 482 ft 123 kts 84°
2026-05-07 06:39 51.43226 12.24296 735 ft 144 kts 87°
2026-05-07 06:39 51.43210 12.25929 1158 ft 154 kts 88°
2026-05-07 06:39 51.43227 12.27636 1767 ft 155 kts 84°
2026-05-07 06:40 51.43279 12.29316 2402 ft 154 kts 84°
2026-05-07 06:40 51.43344 12.31040 2846 ft 160 kts 83°
2026-05-07 06:40 51.43427 12.32897 3166 ft 174 kts 83°
2026-05-07 06:40 51.43518 12.34857 3616 ft 181 kts 83°
2026-05-07 06:41 51.43619 12.36872 4166 ft 182 kts 83°
2026-05-07 06:41 51.43726 12.38882 4679 ft 185 kts 83°
2026-05-07 06:41 51.43836 12.40937 5185 ft 188 kts 83°
2026-05-07 06:41 51.43948 12.43018 5687 ft 191 kts 82°
2026-05-07 06:42 51.44063 12.45124 6252 ft 191 kts 82°
2026-05-07 06:42 51.44180 12.47259 6778 ft 193 kts 82°
2026-05-07 06:42 51.44297 12.49388 7321 ft 195 kts 82°
2026-05-07 06:42 51.44397 12.51560 7887 ft 197 kts 89°
2026-05-07 06:43 51.43987 12.53636 8357 ft 203 kts 119°
2026-05-07 06:43 51.43227 12.55557 8835 ft 207 kts 121°
2026-05-07 06:43 51.42456 12.57483 9366 ft 209 kts 122°
2026-05-07 06:43 51.41666 12.59434 9887 ft 210 kts 122°
2026-05-07 06:44 51.40881 12.61393 10402 ft 210 kts 122°
2026-05-07 06:44 51.40086 12.63376 10771 ft 216 kts 123°
2026-05-07 06:44 51.39273 12.65417 11294 ft 217 kts 124°
2026-05-07 06:44 51.38480 12.67419 11891 ft 214 kts 124°
2026-05-07 06:45 51.37659 12.69469 12189 ft 230 kts 125°
2026-05-07 06:45 51.36770 12.71720 12390 ft 246 kts 124°
2026-05-07 06:45 51.35832 12.74062 12659 ft 258 kts 125°
2026-05-07 06:45 51.34881 12.76481 13189 ft 257 kts 125°
2026-05-07 06:46 51.33925 12.78897 13615 ft 259 kts 125°
2026-05-07 06:46 51.32966 12.81327 14159 ft 259 kts 125°
2026-05-07 06:46 51.31998 12.83750 14587 ft 262 kts 124°
2026-05-07 06:46 51.31012 12.86225 15049 ft 264 kts 124°
2026-05-07 06:47 51.30033 12.88678 15447 ft 266 kts 124°
2026-05-07 06:47 51.29030 12.91190 15894 ft 268 kts 124°
2026-05-07 06:47 51.28038 12.93678 16290 ft 271 kts 124°
2026-05-07 06:47 51.27027 12.96201 16714 ft 271 kts 123°
2026-05-07 06:48 51.26004 12.98760 17072 ft 273 kts 123°
2026-05-07 06:48 51.24990 13.01284 17480 ft 274 kts 124°
2026-05-07 06:48 51.23958 13.03851 17821 ft 276 kts 124°
2026-05-07 06:48 51.22926 13.06427 18208 ft 277 kts 123°
2026-05-07 06:49 51.21895 13.08988 18533 ft 279 kts 124°
2026-05-07 06:49 51.20846 13.11593 18878 ft 280 kts 123°
2026-05-07 06:49 51.19796 13.14203 19234 ft 280 kts 123°
2026-05-07 06:49 51.18736 13.16822 19560 ft 282 kts 123°
2026-05-07 06:50 51.17673 13.19457 19888 ft 283 kts 123°
2026-05-07 06:50 51.16616 13.22077 20181 ft 283 kts 123°
2026-05-07 06:50 51.15562 13.24728 20449 ft 285 kts 122°
2026-05-07 06:50 51.14508 13.27384 20694 ft 287 kts 122°
2026-05-07 06:51 51.13431 13.30100 20841 ft 293 kts 122°
2026-05-07 06:51 51.12329 13.32866 20864 ft 303 kts 122°
2026-05-07 06:51 51.11188 13.35731 20864 ft 308 kts 123°
2026-05-07 06:51 51.10060 13.38566 20859 ft 306 kts 123°
2026-05-07 06:52 51.08915 13.41440 20847 ft 305 kts 123°
2026-05-07 06:52 51.07792 13.44254 20854 ft 303 kts 123°
2026-05-07 06:52 51.06661 13.47083 20852 ft 302 kts 123°
2026-05-07 06:52 51.05551 13.49856 20852 ft 301 kts 123°
2026-05-07 06:53 51.04428 13.52655 20854 ft 300 kts 123°
2026-05-07 06:53 51.03307 13.55448 20858 ft 300 kts 123°
2026-05-07 06:53 51.02187 13.58216 20864 ft 300 kts 124°
2026-05-07 06:53 51.00751 13.60576 20860 ft 296 kts 147°
2026-05-07 06:54 50.98998 13.62227 20862 ft 295 kts 151°
2026-05-07 06:54 50.97203 13.63835 20868 ft 296 kts 151°
2026-05-07 06:54 50.95422 13.65426 20867 ft 296 kts 152°
2026-05-07 06:54 50.93617 13.67042 20863 ft 296 kts 152°
2026-05-07 06:55 50.91835 13.68638 20861 ft 297 kts 152°
2026-05-07 06:55 50.90045 13.70258 20862 ft 297 kts 150°
2026-05-07 06:55 50.88491 13.72371 20873 ft 298 kts 133°
2026-05-07 06:55 50.87171 13.74892 20858 ft 299 kts 131°
2026-05-07 06:56 50.85854 13.77454 20856 ft 300 kts 131°
2026-05-07 06:56 50.84543 13.79999 20858 ft 300 kts 131°
2026-05-07 06:56 50.83227 13.82548 20847 ft 300 kts 131°
2026-05-07 06:56 50.81892 13.85127 20849 ft 300 kts 131°
2026-05-07 06:57 50.80583 13.87687 20845 ft 301 kts 128°
2026-05-07 06:57 50.79480 13.90486 20838 ft 302 kts 121°
2026-05-07 06:57 50.78471 13.93387 20843 ft 302 kts 121°
2026-05-07 06:57 50.77463 13.96285 20842 ft 303 kts 121°
2026-05-07 06:58 50.76449 13.99191 20844 ft 304 kts 121°
2026-05-07 06:58 50.75425 14.02117 20852 ft 305 kts 121°
2026-05-07 06:58 50.74392 14.05055 20852 ft 306 kts 121°
2026-05-07 06:58 50.73363 14.07978 20849 ft 307 kts 121°
2026-05-07 06:59 50.72328 14.10912 20851 ft 308 kts 121°
2026-05-07 06:59 50.71292 14.13842 20860 ft 308 kts 122°
2026-05-07 06:59 50.70250 14.16784 20857 ft 309 kts 122°
2026-05-07 06:59 50.69201 14.19742 20860 ft 309 kts 122°
2026-05-07 07:00 50.68149 14.22702 20862 ft 309 kts 122°
2026-05-07 07:00 50.67110 14.25624 20858 ft 310 kts 122°
2026-05-07 07:00 50.66053 14.28589 20856 ft 310 kts 122°
2026-05-07 07:00 50.64999 14.31547 20867 ft 310 kts 123°
2026-05-07 07:01 50.63951 14.34481 20865 ft 310 kts 123°
2026-05-07 07:01 50.62897 14.37429 20870 ft 310 kts 123°
2026-05-07 07:01 50.61836 14.40391 20869 ft 310 kts 123°
2026-05-07 07:01 50.60770 14.43366 20876 ft 310 kts 123°
2026-05-07 07:02 50.59715 14.46275 20871 ft 310 kts 125°
2026-05-07 07:02 50.58275 14.48692 20862 ft 297 kts 152°
2026-05-07 07:02 50.56359 14.49666 20834 ft 290 kts 173°
2026-05-07 07:02 50.54349 14.50082 20513 ft 290 kts 175°
2026-05-07 07:03 50.52377 14.50440 20124 ft 287 kts 176°
2026-05-07 07:03 50.50404 14.50781 19708 ft 285 kts 175°
2026-05-07 07:03 50.48438 14.51113 19284 ft 284 kts 176°
2026-05-07 07:03 50.46494 14.51436 18864 ft 283 kts 175°
2026-05-07 07:04 50.44539 14.51755 18441 ft 283 kts 175°
2026-05-07 07:04 50.42569 14.52074 18015 ft 284 kts 175°
2026-05-07 07:04 50.40618 14.52385 17586 ft 284 kts 176°
2026-05-07 07:04 50.38664 14.52157 17073 ft 282 kts 199°
2026-05-07 07:05 50.37107 14.50419 16621 ft 281 kts 230°
2026-05-07 07:05 50.36132 14.47776 16194 ft 282 kts 242°
2026-05-07 07:05 50.35287 14.45028 15751 ft 283 kts 243°
2026-05-07 07:05 50.34446 14.42235 15299 ft 283 kts 243°
2026-05-07 07:06 50.33614 14.39456 14852 ft 283 kts 243°
2026-05-07 07:06 50.32782 14.36674 14400 ft 283 kts 243°
2026-05-07 07:06 50.31950 14.33890 13949 ft 283 kts 243°
2026-05-07 07:06 50.31121 14.31117 13500 ft 283 kts 243°
2026-05-07 07:07 50.30020 14.28662 13026 ft 281 kts 220°
2026-05-07 07:07 50.28252 14.27442 12564 ft 279 kts 188°
2026-05-07 07:07 50.26360 14.27850 12129 ft 280 kts 163°
2026-05-07 07:07 50.24590 14.29151 11672 ft 282 kts 147°
2026-05-07 07:08 50.23385 14.31546 11207 ft 288 kts 114°
2026-05-07 07:08 50.23175 14.34617 10754 ft 292 kts 82°
2026-05-07 07:08 50.23833 14.37571 10332 ft 292 kts 67°
2026-05-07 07:08 50.24675 14.40451 9889 ft 292 kts 66°
2026-05-07 07:09 50.25521 14.43306 9442 ft 292 kts 65°
2026-05-07 07:09 50.26375 14.46181 8969 ft 292 kts 66°
2026-05-07 07:09 50.27219 14.49068 8475 ft 293 kts 68°
2026-05-07 07:09 50.27585 14.52129 7952 ft 289 kts 96°
2026-05-07 07:10 50.26890 14.54942 7510 ft 272 kts 130°
2026-05-07 07:10 50.25448 14.56659 7134 ft 257 kts 155°
2026-05-07 07:10 50.23869 14.57802 6695 ft 250 kts 161°
2026-05-07 07:10 50.22196 14.58031 6200 ft 238 kts 196°
2026-05-07 07:11 50.20866 14.56682 5702 ft 229 kts 232°
2026-05-07 07:11 50.20044 14.54625 5229 ft 226 kts 241°
2026-05-07 07:11 50.19341 14.52439 4732 ft 225 kts 245°
2026-05-07 07:11 50.18705 14.50231 4241 ft 224 kts 245°
2026-05-07 07:12 50.18073 14.48073 3992 ft 211 kts 244°
2026-05-07 07:12 50.17343 14.46139 3736 ft 199 kts 239°
2026-05-07 07:12 50.16707 14.44295 3461 ft 188 kts 245°
2026-05-07 07:12 50.16158 14.42530 3210 ft 176 kts 245°
2026-05-07 07:13 50.15633 14.40837 3002 ft 172 kts 245°
2026-05-07 07:13 50.15132 14.39171 2834 ft 168 kts 245°
2026-05-07 07:13 50.14645 14.37547 2596 ft 165 kts 245°
2026-05-07 07:13 50.14166 14.35951 2359 ft 156 kts 245°
2026-05-07 07:14 50.13718 14.34439 2198 ft 152 kts 245°
2026-05-07 07:14 50.13279 14.32963 1975 ft 148 kts 243°
2026-05-07 07:14 50.12850 14.31531 1780 ft 143 kts 244°
2026-05-07 07:14 50.12435 14.30137 1611 ft 142 kts 244°
2026-05-07 07:15 50.12020 14.28753 1419 ft 142 kts 244°
2026-05-07 07:15 50.11611 14.27381 1244 ft 139 kts 244°
2026-05-07 07:15 50.11235 14.26127 1175 ft 99 kts 243°
2026-05-07 07:15 50.11042 14.25550 1175 ft 37 kts 233°
2026-05-07 07:16 50.10872 14.25360 1174 ft 25 kts 188°
2026-05-07 07:16 50.10732 14.25418 1174 ft 18 kts 137°
2026-05-07 07:16 50.10666 14.25565 1175 ft 15 kts 117°
2026-05-07 07:16 50.10621 14.25706 1175 ft 13 kts 116°
2026-05-07 07:17 50.10642 14.25826 1175 ft 13 kts 33°
2026-05-07 07:17 50.10720 14.25909 1175 ft 14 kts 34°
2026-05-07 07:17 50.10810 14.26008 1175 ft 16 kts 34°
2026-05-07 07:17 50.10838 14.26070 1175 ft 5 kts 111°
2026-05-07 07:18 50.10814 14.26118 1175 ft 5 kts 126°
2026-05-07 07:18 50.10805 14.26139 1174 ft 0 kts 123°